Preview of NWS' New Version of Forecast
This preview is not operational and should not be used for support decisions.

Regional Weather Roundup (RWR)

Issued by National Weather Service (NWS)

                            
000
ASUS46 KPQR 180310
RWROR 

OREGON REGIONAL WEATHER ROUNDUP
NATIONAL WEATHER SERVICE PORTLAND OR
800 PM PDT SAT AUG 17 2019

NOTE: "FAIR" INDICATES FEW OR NO CLOUDS BELOW 12,000 FEET WITH
NO SIGNIFICANT WEATHER AND/OR OBSTRUCTIONS TO VISIBILITY.

ORZ001>013-180400-
NORTHWEST OREGON

  
CITY           SKY/WX    TMP DP  RH WIND       PRES   REMARKS
ASTORIA        CLOUDY    63  57  81 W6        29.95F                  
TILLAMOOK      MOCLDY    64  55  72 W7        29.96S                  
NEWPORT        CLEAR     61  55  82 N12       29.96F                  
PORTLAND       MOCLDY    70  56  61 N5        29.92F                  
VANCOUVER WA   CLOUDY    69  56  62 NW6       29.92F                  
SCAPPOOSE      CLOUDY    68  58  70 NW3       29.92S                  
HILLSBORO      MOCLDY    69  56  62 NE6       29.92F                  
AURORA         PTCLDY    70  53  54 NE7       29.93S                  
MCMINNVILLE    CLEAR     68  54  60 E5        29.91F                  
SALEM          CLEAR     70  52  52 NE8       29.90F                  
CORVALLIS      CLEAR     73  55  53 N13       29.90S                  
EUGENE         PTCLDY    73  52  47 NE13      29.89S                  
$$

ORZ021-028-180400-
SOUTHWEST OREGON

  
CITY           SKY/WX    TMP DP  RH WIND       PRES   REMARKS
NORTH BEND     CLEAR     62  58  86 N20G28    29.92S                  
BROOKINGS      CLEAR     66  55  67 SE6       29.77R                  
ROSEBURG       CLEAR     79  50  36 N8        29.85S                  
SEXTON SUMMIT  CLEAR     63  44  50 N8G17     29.95S                  
GRANTS PASS    FAIR      81  43  26 N10       29.85S                  
MEDFORD        CLEAR     82  45  27 N9        29.80R                  
$$

ORZ014>016-041-180400-
COLUMBIA GORGE

  
CITY           SKY/WX    TMP DP  RH WIND       PRES   REMARKS
TROUTDALE      CLOUDY    70  55  59 CALM      29.92F                  
HOOD RIVER     PTCLDY    68  52  56 SW7       29.89R                  
THE DALLES     PTCLDY    70  54  56 NW14      29.83S                  
$$

ORZ029>031-041-044-049-050-061>064-502-503-505>511-180400-
EASTERN OREGON

  
CITY           SKY/WX    TMP DP  RH WIND       PRES   REMARKS
MADRAS         PTCLDY    70  46  43 N5        29.90S                  
REDMOND        PTCLDY    74  41  30 N9        29.90R                  
BEND           PTCLDY    73  43  33 NW8       29.91R                  
PRINEVILLE     PTCLDY    72  45  37 NW8       29.90S                  
KLAMATH FALLS  CLEAR     75  38  26 N14       29.92R                  
LAKEVIEW       CLEAR     71  33  24 W6        29.95S                  
HERMISTON      PTCLDY    77  49  37 W6        29.77S                  
PENDLETON      PTCLDY    73  46  38 NW6       29.81S                  
JOHN DAY       PTCLDY    73  39  29 W9        29.91R                  
MEACHAM        MOCLDY    64  46  52 CALM      29.93R                  
LA GRANDE      NOT AVBL                                               
BAKER CITY     MOCLDY    69  47  45 NW6       29.88S                  
BURNS          CLEAR     71  33  24 NW5       29.91R                  
ROME             N/A     80  33  18 E7        29.87R                  
ONTARIO        PTCLDY    76  55  48 SW5       29.79R                  
$$